| time (UTC) | temp F | wind direction | speed MPH | gust MPH | rain 1hr in | rain 24hr in | rain mn in | humidity % | barometer mb |
| 20260506231538 | 62 | 0 | 0.0 | 1.0 | 0.00 | 0.01 | 0.01 | 84 | 1012.4 |
| 20260506230044 | 62 | 0 | 0.0 | 1.0 | 0.00 | 0.01 | 0.01 | 83 | 1012.5 |
| 20260506224537 | 61 | 0 | 0.0 | 1.0 | 0.00 | 0.01 | 0.01 | 84 | 1012.4 |
| 20260506223039 | 61 | 0 | 0.0 | 1.0 | 0.00 | 0.01 | 0.01 | 83 | 1012.5 |
| 20260506221546 | 61 | 0 | 0.0 | 2.0 | 0.00 | 0.01 | 0.01 | 84 | 1012.1 |
| 20260506220047 | 60 | 0 | 0.0 | 1.0 | 0.00 | 0.01 | 0.01 | 84 | 1012.3 |
| 20260506214538 | 61 | 0 | 0.0 | 1.0 | 0.00 | 0.01 | 0.01 | 83 | 1012.2 |
| 20260506213037 | 62 | 0 | 0.0 | 1.0 | 0.00 | 0.01 | 0.01 | 81 | 1012.1 |
| 20260506211551 | 62 | 0 | 0.0 | 5.0 | 0.00 | 0.01 | 0.01 | 82 | 1012.3 |
| 20260506210045 | 62 | 0 | 0.0 | 8.0 | 0.00 | 0.01 | 0.01 | 82 | 1012.5 |
| 20260506204540 | 63 | 0 | 0.0 | 2.0 | 0.00 | 0.01 | 0.01 | 81 | 1012.6 |
| 20260506203039 | 63 | 0 | 0.0 | 8.0 | 0.00 | 0.01 | 0.01 | 81 | 1012.8 |
| 20260506201537 | 65 | 0 | 0.0 | 5.0 | 0.00 | 0.01 | 0.01 | 78 | 1012.5 |
| 20260506200037 | 68 | 0 | 0.0 | 1.0 | 0.00 | 0.01 | 0.01 | 76 | 1012.4 |
| 20260506194538 | 67 | 0 | 0.0 | 2.0 | 0.00 | 0.01 | 0.01 | 77 | 1012.3 |
| 20260506193040 | 67 | 0 | 0.0 | 7.0 | 0.00 | 0.01 | 0.01 | 79 | 1012.2 |
| 20260506191538 | 68 | 0 | 0.0 | 7.0 | 0.00 | 0.01 | 0.01 | 80 | 1012.3 |
| 20260506190037 | 68 | 0 | 0.0 | 7.0 | 0.00 | 0.01 | 0.01 | 79 | 1012.5 |
| 20260506184537 | 73 | 298 | 0.0 | 1.0 | 0.00 | 0.01 | 0.01 | 74 | 1012.2 |
| 20260506183043 | 76 | 0 | 0.0 | 1.0 | 0.00 | 0.01 | 0.01 | 74 | 1011.9 |
| 20260506181538 | 76 | 0 | 0.0 | 4.0 | 0.00 | 0.01 | 0.01 | 74 | 1011.9 |
| 20260506180037 | 75 | 0 | 0.0 | 5.0 | 0.00 | 0.01 | 0.01 | 76 | 1012.1 |
| 20260506174539 | 73 | 0 | 0.0 | 7.0 | 0.00 | 0.01 | 0.01 | 79 | 1011.6 |
| 20260506173046 | 72 | 0 | 0.0 | 8.0 | 0.01 | 0.01 | 0.01 | 79 | 1011.5 |
| 20260506171540 | 69 | 0 | 1.0 | 8.0 | 0.01 | 0.01 | 0.01 | 83 | 1011.7 |
| 20260506170043 | 66 | 60 | 3.0 | 10.0 | 0.01 | 0.01 | 0.01 | 85 | 1011.5 |
| 20260506164537 | 65 | 104 | 0.0 | 13.0 | 0.01 | 0.01 | 0.01 | 89 | 1011.6 |
| 20260506163044 | 64 | 61 | 0.0 | 5.0 | 0.00 | 0.00 | 0.00 | 93 | 1012.3 |
| 20260506161541 | 61 | 0 | 0.0 | 11.0 | 0.00 | 0.00 | 0.00 | 94 | 1012.4 |
| 20260506160041 | 61 | 0 | 0.0 | 1.0 | 0.00 | 0.00 | 0.00 | 91 | 1013.3 |
| 20260506154543 | 63 | 0 | 0.0 | 3.0 | 0.00 | 0.00 | 0.00 | 91 | 1013.1 |
| 20260506153043 | 64 | 0 | 0.0 | 4.0 | 0.00 | 0.00 | 0.00 | 91 | 1012.9 |
| 20260506151538 | 66 | 0 | 0.0 | 1.0 | 0.00 | 0.00 | 0.00 | 90 | 1012.4 |
| 20260506150050 | 67 | 0 | 1.0 | 8.0 | 0.00 | 0.00 | 0.00 | 87 | 1011.9 |
| 20260506144558 | 71 | 0 | 0.0 | 8.0 | 0.00 | 0.00 | 0.00 | 84 | 1011.3 |
| 20260506143049 | 77 | 0 | 0.0 | 1.0 | 0.00 | 0.00 | 0.00 | 87 | 1010.6 |
| 20260506141537 | 77 | 0 | 0.0 | 3.0 | 0.00 | 0.00 | 0.00 | 88 | 1010.1 |
| 20260506140054 | 76 | 0 | 0.0 | 2.0 | 0.00 | 0.00 | 0.00 | 90 | 1010.1 |
| 20260506134544 | 75 | 0 | 0.0 | 7.0 | 0.00 | 0.00 | 0.00 | 91 | 1010.0 |
| 20260506133043 | 74 | 0 | 0.0 | 5.0 | 0.00 | 0.00 | 0.00 | 92 | 1009.9 |
| 20260506131544 | 74 | 197 | 1.0 | 6.0 | 0.00 | 0.00 | 0.00 | 93 | 1009.8 |
| 20260506130054 | 74 | 0 | 1.0 | 6.0 | 0.00 | 0.00 | 0.00 | 94 | 1009.4 |
| 20260506124538 | 73 | 0 | 0.0 | 2.0 | 0.00 | 0.00 | 0.00 | 94 | 1009.4 |
| 20260506123040 | 73 | 0 | 0.0 | 3.0 | 0.00 | 0.00 | 0.00 | 95 | 1009.2 |
| 20260506121550 | 72 | 0 | 0.0 | 2.0 | 0.00 | 0.00 | 0.00 | 95 | 1009.1 |
| 20260506120039 | 72 | 0 | 0.0 | 0.0 | 0.00 | 0.00 | 0.00 | 95 | 1009.1 |
| 20260506114537 | 73 | 0 | 0.0 | 0.0 | 0.00 | 0.00 | 0.00 | 95 | 1008.9 |
| 20260506113040 | 73 | 0 | 0.0 | 0.0 | 0.00 | 0.00 | 0.00 | 94 | 1009.0 |
| 20260506111537 | 73 | 0 | 0.0 | 0.0 | 0.00 | 0.00 | 0.00 | 94 | 1009.3 |
| 20260506110043 | 73 | 0 | 0.0 | 0.0 | 0.00 | 0.00 | 0.00 | 94 | 1009.2 |
| 20260506104539 | 73 | 0 | 0.0 | 0.0 | 0.00 | 0.00 | 0.00 | 93 | 1009.2 |
| 20260506103037 | 73 | 0 | 0.0 | 1.0 | 0.00 | 0.00 | 0.00 | 93 | 1008.9 |
| 20260506101537 | 74 | 210 | 0.0 | 1.0 | 0.00 | 0.00 | 0.00 | 92 | 1008.9 |
| 20260506100038 | 74 | 0 | 0.0 | 1.0 | 0.00 | 0.00 | 0.00 | 92 | 1008.6 |
| 20260506094536 | 74 | 121 | 0.0 | 1.0 | 0.00 | 0.00 | 0.00 | 92 | 1008.5 |
| 20260506093042 | 74 | 0 | 0.0 | 3.0 | 0.00 | 0.00 | 0.00 | 92 | 1008.2 |
| 20260506091537 | 74 | 0 | 0.0 | 1.0 | 0.00 | 0.00 | 0.00 | 92 | 1008.1 |
| 20260506090041 | 74 | 0 | 0.0 | 2.0 | 0.00 | 0.00 | 0.00 | 92 | 1007.8 |
| 20260506084540 | 74 | 0 | 0.0 | 6.0 | 0.00 | 0.00 | 0.00 | 92 | 1007.8 |
| 20260506083037 | 74 | 208 | 0.0 | 4.0 | 0.00 | 0.00 | 0.00 | 92 | 1007.8 |
| 20260506081600 | 74 | 0 | 0.0 | 4.0 | 0.00 | 0.00 | 0.00 | 92 | 1007.7 |
| 20260506073039 | 74 | 277 | 1.0 | 6.0 | 0.00 | 0.00 | 0.00 | 91 | 1008.2 |
| 20260506071542 | 74 | 207 | 1.0 | 11.0 | 0.00 | 0.00 | 0.00 | 91 | 1008.3 |
| 20260506061544 | 74 | 119 | 0.0 | 8.0 | 0.00 | 0.00 | 0.00 | 91 | 1008.1 |
| 20260506044546 | 74 | 130 | 1.0 | 5.0 | 0.00 | 0.00 | 0.00 | 92 | 1008.3 |
| 20260506043043 | 74 | 0 | 0.0 | 7.0 | 0.00 | 0.00 | 0.00 | 91 | 1008.1 |
| 20260506041541 | 74 | 294 | 2.0 | 8.0 | 0.00 | 0.00 | 0.00 | 91 | 1008.2 |
| 20260506040039 | 75 | 0 | 0.0 | 2.0 | 0.00 | 0.00 | 0.00 | 91 | 1008.0 |
| 20260506034547 | 75 | 0 | 0.0 | 7.0 | 0.00 | 0.00 | 0.00 | 90 | 1007.7 |
| 20260506033037 | 75 | 126 | 0.0 | 5.0 | 0.00 | 0.00 | 0.00 | 89 | 1007.6 |
| 20260506031544 | 75 | 212 | 0.0 | 3.0 | 0.00 | 0.00 | 0.00 | 88 | 1007.5 |
| 20260506030040 | 76 | 0 | 0.0 | 2.0 | 0.00 | 0.00 | 0.00 | 87 | 1007.4 |
| 20260506024543 | 76 | 0 | 0.0 | 6.0 | 0.00 | 0.00 | 0.00 | 86 | 1007.2 |
| 20260506023036 | 76 | 0 | 0.0 | 1.0 | 0.00 | 0.00 | 0.00 | 85 | 1006.8 |
| 20260506021540 | 77 | 0 | 0.0 | 4.0 | 0.00 | 0.00 | 0.00 | 85 | 1006.6 |
| 20260506020038 | 77 | 0 | 0.0 | 2.0 | 0.00 | 0.00 | 0.00 | 84 | 1006.4 |
| 20260506014537 | 78 | 196 | 0.0 | 3.0 | 0.00 | 0.00 | 0.00 | 83 | 1006.0 |
| 20260506013040 | 78 | 188 | 0.0 | 2.0 | 0.00 | 0.00 | 0.00 | 82 | 1006.0 |
| 20260506011544 | 78 | 0 | 0.0 | 1.0 | 0.00 | 0.00 | 0.00 | 81 | 1006.0 |
| 20260506010053 | 79 | 0 | 0.0 | 1.0 | 0.00 | 0.00 | 0.00 | 79 | 1006.0 |
| 20260506004538 | 80 | 0 | 0.0 | 1.0 | 0.00 | 0.00 | 0.00 | 78 | 1006.0 |
| 20260506003037 | 81 | 0 | 0.0 | 2.0 | 0.00 | 0.00 | 0.00 | 77 | 1006.0 |
| 20260506001536 | 81 | 0 | 0.0 | 3.0 | 0.00 | 0.00 | 0.00 | 76 | 1006.1 |
| 20260506000035 | 81 | 92 | 0.0 | 6.0 | 0.00 | 0.00 | 0.00 | 75 | 1006.0 |
| 20260505234539 | 82 | 0 | 0.0 | 6.0 | 0.00 | 0.00 | 0.00 | 74 | 1006.0 |
| 20260505233045 | 82 | 0 | 1.0 | 7.0 | 0.00 | 0.00 | 0.00 | 73 | 1005.8 |